Regional Weather Roundup
Issued by NWS

Home | Current Version | Previous Version | Graphics & Text | Print | Product List | Glossary On
Versions: 1 2 3 4 5 6 7 8 9 10 11 12 13 14 15 16 17 18 19 20 21 22 23 24 25 26 27 28
000
ASUS45 KCYS 231210
RWRWY

WYOMING REGIONAL WEATHER ROUNDUP
NATIONAL WEATHER SERVICE CHEYENNE WY
600 AM MDT SAT SEP 23 2017

NOTE:  "FAIR" INDICATES FEW OR NO CLOUDS BELOW 12,000 FEET
WITH NO SIGNIFICANT WEATHER AND/OR OBSTRUCTIONS TO VISIBILITY.

WYZ001-231300-
YELLOWSTONE NATIONAL PARK

CITY           SKY/WX    TMP DP  RH WIND       PRES   REMARKS
LK YELLOWSTONE NOT AVBL
W YELLOWSTONE  NOT AVBL

$$
WYZ002>013-054>058-071-098>099-231300-
NORTHERN WYOMING

CITY           SKY/WX    TMP DP  RH WIND       PRES   REMARKS
JACKSON        CLOUDY    32  31  96 CALM      30.02S
CODY           CLOUDY    36  35  96 NE3       30.05R FOG
GREYBULL       LGT RAIN  41  40  96 NW7       30.03F
6HR MIN TEMP:  41; 6HR MAX TEMP:  42; 6HR PCP:  0.01;

WORLAND        CLOUDY    40  40 100 N6        30.03R
6HR MIN TEMP:  40; 6HR MAX TEMP:  41; 6HR PCP:  0.03;

SHERIDAN       CLOUDY    41  40  96 CALM      30.05S
6HR MIN TEMP:  40; 6HR MAX TEMP:  42;

BUFFALO        CLOUDY    38  36  92 SW3       30.05S
6HR MIN TEMP:  38; 6HR MAX TEMP:  40; 6HR PCP:  0.02;

GILLETTE       CLOUDY    40  36  86 N7        30.03F
6HR MIN TEMP:  38; 6HR MAX TEMP:  42;

HULETT         CLOUDY    39  37  93 NE7       30.05F WCI  34
NEWCASTLE      FAIR      39  39 100 SE7       30.03S WCI  34

$$
WYZ014>020-022>026-101>103-231300-
CENTRAL WYOMING

CITY           SKY/WX    TMP DP  RH WIND       PRES   REMARKS
BIG PINEY      MOCLDY    32  32 100 NE3       30.00F
6HR MIN TEMP:  31; 6HR MAX TEMP:  34;

PINEDALE       CLOUDY    34  32  93 CALM      30.01S
DUBOIS         CLOUDY    32  30  93 NW6       30.00S WCI  26
LANDER           N/A    N/A N/A N/A MISG      29.99S
RIVERTON       CLOUDY    39  39 100 E5        30.01R
6HR MIN TEMP:  38; 6HR MAX TEMP:  41; 6HR PCP:  0.16;

CASPER         LGT RAIN  39  38  96 NE12      30.02R FOG     WCI  32
6HR MIN TEMP:  39; 6HR MAX TEMP:  42; 6HR PCP:  0.01;

DOUGLAS        CLOUDY    43  41  93 E8        30.02F FOG
6HR MIN TEMP:  43; 6HR MAX TEMP:  44; 6HR PCP: TRACE;


$$
WYZ021-027>030-104>119-231300-
SOUTHERN WYOMING

CITY           SKY/WX    TMP DP  RH WIND       PRES   REMARKS
EVANSTON       FAIR      31  29  92 N8        29.97S WCI  23
6HR MIN TEMP:  31; 6HR MAX TEMP:  37;

KEMMERER         N/A     30  30 100 N5        29.99S WCI  25
ROCK SPRINGS   CLOUDY    36  33  89 S5        30.00S WCI  32
6HR MIN TEMP:  35; 6HR MAX TEMP:  36; 6HR PCP: TRACE;

DIXON          CLOUDY    40  36  85 CALM      30.00S
RAWLINS        CLOUDY    41  36  82 SW10      30.01R
6HR MIN TEMP:  40; 6HR MAX TEMP:  43;

SARATOGA       LGT RAIN  39  39 100 CALM      30.00R
LARAMIE        CLOUDY    42  39  89 SE6       30.01S
6HR MIN TEMP:  36; 6HR MAX TEMP:  43;

CHEYENNE       CLOUDY    41  36  82 N12       29.99F
6HR MIN TEMP:  41; 6HR MAX TEMP:  45;

TORRINGTON     MOCLDY    44  37  76 N7        30.00R
6HR MIN TEMP:  43; 6HR MAX TEMP:  48;

PINE BLUFFS    CLOUDY    43  37  81 MISG      30.01S

$$




USA.gov is the U.S. government's official web portal to all federal, state and local government web resources and services.